TimeCST,TemperatureF,Dew PointF,Humidity,Sea Level PressureIn,VisibilityMPH,Wind Direction,Wind SpeedMPH,Gust SpeedMPH,PrecipitationIn,Events,Conditions,WindDirDegrees,DateUTC
12:53 AM,-9999,-9999,N/A,30.33,10.0,North,-9999.0,-,N/A,,Clear,0,2013-11-30 06:53:00
1:53 AM,-9999,-9999,N/A,-9999,10.0,South,5.8,-,N/A,,Clear,180,2013-11-30 07:53:00
2:53 AM,-9999,-9999,N/A,-9999,-9999.0,North,-9999.0,-,N/A,,Unknown,0,2013-11-30 08:53:00
3:53 AM,-9999,-9999,N/A,-9999,10.0,Calm,Calm,-,N/A,,Clear,0,2013-11-30 09:53:00
4:53 AM,-9999,-9999,N/A,-9999,10.0,South,5.8,-,N/A,,Clear,180,2013-11-30 10:53:00
5:53 AM,-9999,-9999,N/A,-9999,-9999.0,North,-9999.0,-,N/A,,Unknown,0,2013-11-30 11:53:00
6:53 AM,-9999,-9999,N/A,30.32,10.0,SSE,5.8,-,N/A,,Clear,150,2013-11-30 12:53:00
7:53 AM,-9999,-9999,N/A,30.32,10.0,South,11.5,-,N/A,,Mostly Cloudy,170,2013-11-30 13:53:00
8:53 AM,-9999,-9999,N/A,30.33,10.0,South,11.5,-,N/A,,Mostly Cloudy,180,2013-11-30 14:53:00
9:53 AM,-9999,-9999,N/A,30.32,10.0,SSW,11.5,17.3,N/A,,Overcast,200,2013-11-30 15:53:00
10:53 AM,-9999,-9999,N/A,303.12,10.0,SSW,17.3,-,N/A,,Mostly Cloudy,200,2013-11-30 16:53:00
11:53 AM,-9999,-9999,N/A,30.27,10.0,SSW,17.3,-,N/A,,Scattered Clouds,200,2013-11-30 17:53:00
12:53 PM,-9999,-9999,N/A,-9999,10.0,SSW,17.3,23.0,N/A,,Scattered Clouds,200,2013-11-30 18:53:00
1:53 PM,-9999,-9999,N/A,30.19,10.0,SSW,17.3,-,N/A,,Scattered Clouds,200,2013-11-30 19:53:00
2:53 PM,-9999,-9999,N/A,30.18,10.0,SSW,17.3,23.0,N/A,,Clear,210,2013-11-30 20:53:00
3:53 PM,-9999,-9999,N/A,30.18,10.0,SSW,17.3,23.0,N/A,,Clear,210,2013-11-30 21:53:00
4:53 PM,-9999,-9999,N/A,30.14,10.0,South,11.5,-,N/A,,Clear,170,2013-11-30 22:53:00
5:53 PM,-9999,-9999,N/A,30.15,10.0,South,11.5,-,N/A,,Clear,170,2013-11-30 23:53:00
6:53 PM,-9999,-9999,N/A,30.15,10.0,South,11.5,-,N/A,,Clear,170,2013-12-01 00:53:00
7:53 PM,-9999,-9999,N/A,30.16,10.0,South,11.5,-,N/A,,Clear,180,2013-12-01 01:53:00
8:53 PM,-9999,-9999,N/A,30.16,10.0,South,11.5,-,N/A,,Clear,180,2013-12-01 02:53:00
9:53 PM,-9999,-9999,N/A,30.16,10.0,South,11.5,-,N/A,,Clear,190,2013-12-01 03:53:00
10:53 PM,-9999,-9999,N/A,30.16,10.0,South,13.8,-,N/A,,Clear,190,2013-12-01 04:53:00
11:53 PM,-9999,-9999,N/A,30.15,10.0,SSW,11.5,-,N/A,,Clear,200,2013-12-01 05:53:00